GFSWCAN_prec_precacc24_114.txt.gz
Total_Precipitation_Accumulation
0.40 0.34 0.42 0.46 0.38 0.28 0.25 0.22 0.16 0.20 0.18 0.12 0.12 0.04 0.01 0.00 0.01 0.06 0.06 0.01 0.02 0.03 0.00 0.00 0.00 0.00 0.00 0.00 0.00 0.00 0.02 0.01 0.00 0.03 0.05 0.04 0.15 0.31 0.28 0.05 0.07 0.17 0.36 0.20 0.07 0.07 0.05 0.01 0.02 0.07 0.16 0.13 0.08 0.06
0.32 0.27 0.30 0.24 0.17 0.15 0.13 0.10 0.08 0.11 0.09 0.03 0.01 0.00 0.00 0.00 0.01 0.04 0.08 0.02 0.01 0.02 0.00 0.00 0.00 0.00 0.00 0.00 0.00 0.00 0.02 0.03 0.03 0.03 0.03 0.03 0.14 0.13 0.29 0.25 0.01 0.11 0.15 0.09 0.07 0.10 0.13 0.06 0.08 0.12 0.05 0.07 0.12 0.08
0.25 0.20 0.16 0.11 0.07 0.06 0.04 0.04 0.04 0.03 0.03 0.01 0.00 0.00 0.00 0.00 0.00 0.03 0.09 0.02 0.01 0.01 0.00 0.00 0.00 0.00 0.00 0.00 0.00 0.00 0.01 0.01 0.01 0.01 0.02 0.02 0.21 0.08 0.17 0.08 0.04 0.04 0.06 0.08 0.10 0.10 0.07 0.07 0.05 0.05 0.04 0.09 0.11 0.09
0.20 0.16 0.08 0.05 0.02 0.01 0.02 0.03 0.02 0.01 0.02 0.01 0.00 0.00 0.00 0.01 0.01 0.02 0.07 0.02 0.01 0.02 0.01 0.03 0.00 0.00 0.00 0.00 0.00 0.00 0.00 0.00 0.00 0.00 0.01 0.05 0.16 0.06 0.07 0.03 0.00 0.01 0.01 0.04 0.09 0.11 0.07 0.05 0.07 0.08 0.09 0.09 0.09 0.11
0.18 0.10 0.03 0.01 0.01 0.00 0.02 0.02 0.01 0.01 0.02 0.01 0.01 0.00 0.00 0.01 0.03 0.06 0.10 0.04 0.01 0.03 0.04 0.02 0.00 0.00 0.00 0.00 0.00 0.00 0.00 0.00 0.00 0.01 0.01 0.06 0.12 0.07 0.05 0.06 0.02 0.02 0.03 0.07 0.10 0.06 0.05 0.08 0.09 0.06 0.06 0.10 0.10 0.09
0.12 0.05 0.01 0.01 0.01 0.01 0.02 0.01 0.01 0.01 0.01 0.00 0.01 0.00 0.01 0.03 0.06 0.12 0.06 0.02 0.01 0.00 0.02 0.02 0.04 0.00 0.00 0.00 0.00 0.00 0.00 0.00 0.00 0.00 0.01 0.04 0.06 0.03 0.12 0.10 0.04 0.03 0.04 0.03 0.04 0.03 0.01 0.04 0.06 0.06 0.07 0.09 0.08 0.06
0.07 0.03 0.01 0.01 0.02 0.02 0.03 0.02 0.01 0.01 0.00 0.00 0.01 0.01 0.02 0.10 0.12 0.06 0.08 0.11 0.01 0.01 0.03 0.02 0.05 0.03 0.00 0.00 0.00 0.00 0.00 0.00 0.01 0.01 0.02 0.04 0.03 0.03 0.11 0.11 0.06 0.06 0.11 0.07 0.04 0.03 0.07 0.08 0.09 0.07 0.05 0.05 0.04 0.03
0.04 0.02 0.01 0.02 0.03 0.05 0.04 0.02 0.01 0.01 0.00 0.01 0.01 0.01 0.06 0.18 0.15 0.06 0.04 0.00 0.01 0.02 0.02 0.01 0.02 0.08 0.01 0.03 0.03 0.01 0.01 0.01 0.00 0.01 0.02 0.03 0.02 0.07 0.18 0.16 0.11 0.10 0.13 0.10 0.04 0.02 0.03 0.02 0.02 0.01 0.00 0.00 0.00 0.00
0.04 0.03 0.01 0.02 0.04 0.07 0.05 0.02 0.01 0.01 0.01 0.02 0.03 0.10 0.33 0.36 0.09 0.04 0.01 0.00 0.02 0.06 0.05 0.01 0.03 0.32 0.05 0.05 0.08 0.04 0.02 0.02 0.03 0.02 0.02 0.02 0.05 0.09 0.20 0.15 0.12 0.09 0.09 0.07 0.02 0.00 0.00 0.00 0.00 0.00 0.00 0.00 0.00 0.00
0.05 0.03 0.02 0.02 0.04 0.07 0.04 0.01 0.00 0.03 0.03 0.08 0.23 0.30 0.26 0.19 0.05 0.03 0.06 0.04 0.03 0.03 0.03 0.01 0.01 0.10 0.12 0.06 0.08 0.10 0.06 0.02 0.03 0.02 0.02 0.04 0.03 0.03 0.11 0.09 0.05 0.01 0.00 0.00 0.00 0.00 0.00 0.00 0.00 0.00 0.00 0.00 0.00 0.00
0.04 0.03 0.03 0.03 0.04 0.06 0.04 0.00 0.02 0.06 0.11 0.24 0.28 0.31 0.22 0.24 0.20 0.09 0.04 0.04 0.02 0.02 0.01 0.00 0.00 0.03 0.09 0.10 0.12 0.08 0.05 0.06 0.02 0.09 0.05 0.10 0.03 0.01 0.05 0.05 0.01 0.01 0.00 0.00 0.00 0.00 0.00 0.00 0.00 0.00 0.00 0.00 0.00 0.00
0.03 0.02 0.03 0.03 0.04 0.06 0.03 0.01 0.02 0.09 0.10 0.11 0.17 0.23 0.37 0.30 0.20 0.09 0.03 0.02 0.01 0.01 0.02 0.00 0.00 0.01 0.09 0.05 0.09 0.04 0.01 0.04 0.07 0.11 0.07 0.07 0.02 0.00 0.01 0.01 0.02 0.00 0.00 0.00 0.00 0.00 0.00 0.00 0.00 0.00 0.00 0.00 0.00 0.00
0.03 0.05 0.05 0.05 0.05 0.05 0.02 0.01 0.03 0.12 0.20 0.36 0.32 0.22 0.26 0.16 0.12 0.03 0.02 0.01 0.00 0.01 0.02 0.00 0.00 0.01 0.02 0.01 0.01 0.03 0.03 0.08 0.07 0.05 0.06 0.02 0.01 0.03 0.03 0.01 0.01 0.00 0.00 0.00 0.00 0.00 0.00 0.00 0.00 0.00 0.00 0.00 0.00 0.00
0.03 0.06 0.07 0.05 0.06 0.08 0.03 0.03 0.04 0.25 0.54 0.45 0.32 0.14 0.10 0.09 0.01 0.02 0.02 0.02 0.02 0.01 0.00 0.00 0.01 0.03 0.04 0.01 0.02 0.03 0.03 0.02 0.04 0.07 0.06 0.00 0.00 0.03 0.06 0.05 0.02 0.01 0.00 0.00 0.00 0.00 0.00 0.00 0.00 0.00 0.00 0.00 0.00 0.00
0.04 0.07 0.10 0.10 0.10 0.07 0.05 0.06 0.12 0.37 0.47 0.39 0.31 0.07 0.01 0.02 0.02 0.02 0.02 0.01 0.00 0.00 0.00 0.01 0.04 0.06 0.03 0.06 0.03 0.04 0.03 0.02 0.01 0.03 0.01 0.00 0.00 0.01 0.02 0.04 0.04 0.01 0.00 0.00 0.00 0.00 0.00 0.00 0.00 0.00 0.00 0.00 0.00 0.00
0.07 0.13 0.11 0.11 0.10 0.06 0.08 0.20 0.38 0.36 0.32 0.21 0.23 0.11 0.03 0.01 0.03 0.03 0.01 0.00 0.00 0.01 0.01 0.04 0.02 0.04 0.03 0.08 0.11 0.02 0.02 0.04 0.03 0.01 0.01 0.01 0.01 0.02 0.01 0.02 0.03 0.03 0.00 0.00 0.00 0.00 0.00 0.00 0.00 0.00 0.00 0.00 0.00 0.00
0.09 0.10 0.09 0.12 0.10 0.10 0.28 0.42 0.40 0.37 0.24 0.17 0.12 0.06 0.03 0.02 0.04 0.02 0.01 0.01 0.00 0.02 0.02 0.06 0.03 0.04 0.10 0.03 0.02 0.01 0.01 0.01 0.01 0.02 0.01 0.00 0.00 0.00 0.02 0.02 0.01 0.01 0.00 0.00 0.00 0.00 0.00 0.00 0.00 0.00 0.00 0.00 0.00 0.00
0.07 0.07 0.10 0.12 0.15 0.37 0.42 0.37 0.36 0.25 0.11 0.06 0.04 0.04 0.02 0.01 0.02 0.01 0.00 0.00 0.01 0.01 0.01 0.05 0.05 0.04 0.08 0.21 0.13 0.00 0.00 0.02 0.01 0.01 0.01 0.01 0.00 0.00 0.00 0.00 0.01 0.00 0.00 0.00 0.00 0.00 0.00 0.00 0.00 0.00 0.00 0.00 0.00 0.00
0.06 0.09 0.16 0.16 0.12 0.19 0.28 0.22 0.23 0.17 0.03 0.02 0.01 0.01 0.01 0.01 0.00 0.00 0.00 0.00 0.00 0.00 0.01 0.01 0.00 0.01 0.03 0.03 0.02 0.00 0.01 0.01 0.02 0.02 0.02 0.00 0.00 0.00 0.00 0.00 0.00 0.00 0.00 0.00 0.00 0.00 0.00 0.00 0.00 0.00 0.00 0.00 0.00 0.00
0.21 0.23 0.24 0.10 0.05 0.10 0.13 0.11 0.03 0.04 0.01 0.01 0.00 0.00 0.00 0.01 0.00 0.01 0.01 0.00 0.00 0.00 0.01 0.00 0.00 0.00 0.00 0.00 0.00 0.00 0.00 0.00 0.00 0.01 0.03 0.02 0.00 0.00 0.00 0.00 0.00 0.00 0.00 0.00 0.00 0.00 0.00 0.00 0.00 0.00 0.00 0.00 0.00 0.00
0.46 0.63 0.49 0.20 0.16 0.17 0.14 0.05 0.01 0.00 0.00 0.01 0.00 0.00 0.00 0.00 0.01 0.01 0.01 0.00 0.02 0.01 0.01 0.00 0.00 0.00 0.00 0.00 0.00 0.00 0.00 0.00 0.00 0.00 0.00 0.01 0.01 0.00 0.00 0.00 0.00 0.00 0.00 0.00 0.00 0.00 0.00 0.00 0.00 0.00 0.00 0.00 0.00 0.00
0.52 0.51 0.56 0.24 0.12 0.11 0.08 0.04 0.04 0.00 0.01 0.01 0.01 0.00 0.01 0.02 0.01 0.01 0.00 0.01 0.02 0.01 0.00 0.00 0.00 0.00 0.00 0.00 0.00 0.00 0.00 0.00 0.00 0.00 0.00 0.00 0.01 0.01 0.01 0.01 0.00 0.01 0.01 0.01 0.00 0.01 0.00 0.00 0.00 0.00 0.00 0.00 0.00 0.00
0.27 0.25 0.26 0.14 0.11 0.11 0.06 0.07 0.05 0.00 0.00 0.02 0.01 0.01 0.01 0.01 0.01 0.00 0.01 0.00 0.00 0.00 0.00 0.00 0.00 0.00 0.00 0.00 0.00 0.00 0.00 0.00 0.00 0.00 0.00 0.00 0.00 0.01 0.00 0.00 0.01 0.01 0.01 0.00 0.00 0.00 0.00 0.00 0.00 0.00 0.00 0.00 0.00 0.00
0.22 0.28 0.33 0.14 0.06 0.07 0.05 0.11 0.07 0.04 0.01 0.01 0.01 0.01 0.00 0.01 0.01 0.00 0.00 0.00 0.00 0.00 0.00 0.00 0.00 0.00 0.00 0.00 0.00 0.00 0.00 0.00 0.00 0.00 0.00 0.00 0.01 0.01 0.00 0.00 0.00 0.00 0.00 0.00 0.00 0.00 0.00 0.00 0.00 0.00 0.00 0.00 0.00 0.01
0.33 0.23 0.21 0.15 0.02 0.01 0.02 0.05 0.07 0.03 0.01 0.00 0.01 0.00 0.01 0.00 0.01 0.01 0.00 0.00 0.00 0.00 0.00 0.00 0.00 0.00 0.00 0.00 0.00 0.00 0.00 0.00 0.00 0.01 0.01 0.00 0.00 0.01 0.02 0.01 0.00 0.00 0.00 0.00 0.00 0.00 0.00 0.01 0.01 0.01 0.01 0.01 0.00 0.00
0.32 0.15 0.06 0.04 0.01 0.00 0.00 0.01 0.01 0.00 0.01 0.01 0.01 0.01 0.01 0.01 0.01 0.00 0.01 0.03 0.02 0.02 0.01 0.01 0.00 0.00 0.00 0.00 0.00 0.00 0.00 0.00 0.00 0.00 0.01 0.00 0.00 0.00 0.01 0.01 0.00 0.00 0.00 0.00 0.00 0.00 0.01 0.01 0.01 0.01 0.00 0.00 0.00 0.00
0.14 0.13 0.03 0.02 0.01 0.01 0.00 0.00 0.01 0.01 0.01 0.01 0.01 0.01 0.01 0.01 0.00 0.01 0.01 0.03 0.05 0.02 0.01 0.01 0.01 0.00 0.00 0.00 0.00 0.01 0.00 0.00 0.00 0.00 0.01 0.00 0.00 0.00 0.00 0.00 0.00 0.00 0.00 0.00 0.00 0.00 0.00 0.01 0.01 0.00 0.00 0.00 0.00 0.00
0.02 0.02 0.03 0.04 0.07 0.05 0.02 0.01 0.00 0.00 0.00 0.00 0.00 0.01 0.01 0.00 0.02 0.03 0.02 0.02 0.10 0.05 0.05 0.05 0.06 0.01 0.00 0.00 0.01 0.02 0.03 0.03 0.01 0.00 0.01 0.01 0.02 0.01 0.00 0.00 0.00 0.00 0.00 0.01 0.01 0.01 0.01 0.00 0.00 0.00 0.00 0.00 0.00 0.00
0.01 0.01 0.00 0.03 0.05 0.07 0.05 0.02 0.01 0.00 0.00 0.01 0.02 0.01 0.01 0.01 0.03 0.02 0.02 0.06 0.09 0.04 0.05 0.07 0.13 0.03 0.02 0.03 0.05 0.05 0.04 0.02 0.01 0.02 0.01 0.02 0.03 0.04 0.02 0.00 0.00 0.01 0.01 0.01 0.01 0.00 0.00 0.00 0.00 0.00 0.00 0.00 0.00 0.00
0.00 0.02 0.02 0.03 0.04 0.02 0.02 0.02 0.03 0.01 0.01 0.02 0.01 0.01 0.01 0.02 0.02 0.03 0.04 0.06 0.09 0.06 0.04 0.02 0.04 0.02 0.03 0.04 0.07 0.11 0.09 0.05 0.01 0.00 0.00 0.01 0.01 0.02 0.02 0.01 0.01 0.01 0.00 0.00 0.00 0.01 0.00 0.00 0.00 0.00 0.00 0.00 0.00 0.00
0.02 0.04 0.04 0.04 0.03 0.03 0.04 0.03 0.02 0.02 0.03 0.03 0.04 0.02 0.01 0.02 0.02 0.03 0.05 0.08 0.12 0.05 0.04 0.06 0.08 0.06 0.04 0.03 0.01 0.01 0.05 0.06 0.04 0.02 0.01 0.00 0.01 0.02 0.02 0.01 0.00 0.00 0.00 0.00 0.00 0.00 0.00 0.00 0.00 0.00 0.00 0.00 0.00 0.00
0.08 0.08 0.04 0.04 0.05 0.07 0.07 0.08 0.06 0.04 0.03 0.02 0.02 0.01 0.02 0.02 0.02 0.02 0.03 0.07 0.11 0.07 0.06 0.05 0.05 0.09 0.07 0.08 0.06 0.04 0.02 0.03 0.02 0.01 0.00 0.01 0.02 0.02 0.01 0.00 0.00 0.00 0.00 0.00 0.00 0.00 0.00 0.00 0.00 0.00 0.00 0.00 0.00 0.00
0.07 0.05 0.06 0.06 0.06 0.05 0.05 0.08 0.08 0.04 0.03 0.03 0.02 0.02 0.03 0.03 0.02 0.03 0.04 0.07 0.14 0.11 0.09 0.08 0.06 0.07 0.09 0.08 0.06 0.06 0.05 0.06 0.05 0.02 0.02 0.02 0.01 0.00 0.00 0.00 0.00 0.00 0.00 0.00 0.00 0.00 0.00 0.00 0.00 0.00 0.00 0.00 0.00 0.00

GFSWCAN_prec_precacc24_117.txt.gz
Total_Precipitation_Accumulation
0.51 0.59 0.78 0.75 0.54 0.38 0.33 0.29 0.26 0.32 0.31 0.29 0.28 0.16 0.12 0.07 0.03 0.04 0.06 0.03 0.03 0.03 0.01 0.00 0.00 0.00 0.00 0.00 0.00 0.00 0.01 0.01 0.00 0.02 0.05 0.05 0.15 0.31 0.27 0.03 0.06 0.16 0.34 0.20 0.09 0.10 0.06 0.01 0.02 0.07 0.14 0.10 0.05 0.03
0.40 0.47 0.61 0.52 0.39 0.37 0.31 0.26 0.28 0.34 0.28 0.24 0.18 0.10 0.07 0.05 0.04 0.04 0.07 0.03 0.01 0.01 0.00 0.00 0.00 0.00 0.00 0.00 0.00 0.00 0.02 0.02 0.01 0.03 0.04 0.03 0.12 0.10 0.26 0.18 0.01 0.10 0.15 0.10 0.07 0.09 0.11 0.05 0.08 0.10 0.04 0.05 0.06 0.04
0.31 0.35 0.37 0.33 0.34 0.30 0.27 0.27 0.26 0.24 0.16 0.15 0.11 0.07 0.06 0.04 0.04 0.04 0.07 0.01 0.00 0.00 0.00 0.00 0.00 0.00 0.00 0.00 0.00 0.00 0.01 0.00 0.00 0.01 0.01 0.01 0.19 0.06 0.09 0.05 0.03 0.04 0.07 0.07 0.08 0.09 0.06 0.06 0.05 0.04 0.03 0.05 0.06 0.05
0.25 0.26 0.22 0.23 0.23 0.22 0.19 0.17 0.15 0.11 0.10 0.10 0.06 0.04 0.03 0.01 0.00 0.01 0.04 0.02 0.01 0.01 0.00 0.02 0.00 0.00 0.00 0.00 0.00 0.00 0.00 0.00 0.00 0.00 0.00 0.03 0.10 0.03 0.04 0.02 0.00 0.01 0.02 0.05 0.08 0.10 0.07 0.05 0.06 0.07 0.06 0.06 0.06 0.06
0.20 0.13 0.07 0.05 0.05 0.04 0.04 0.05 0.05 0.03 0.04 0.02 0.00 0.00 0.00 0.00 0.00 0.02 0.07 0.03 0.01 0.03 0.03 0.01 0.00 0.00 0.00 0.00 0.00 0.00 0.00 0.00 0.00 0.01 0.01 0.04 0.07 0.03 0.03 0.05 0.01 0.01 0.02 0.05 0.08 0.05 0.04 0.06 0.07 0.04 0.04 0.06 0.06 0.05
0.12 0.06 0.02 0.01 0.00 0.00 0.01 0.01 0.01 0.01 0.01 0.00 0.00 0.00 0.00 0.00 0.02 0.07 0.04 0.02 0.01 0.00 0.01 0.01 0.03 0.00 0.00 0.00 0.00 0.00 0.00 0.00 0.00 0.00 0.00 0.03 0.04 0.01 0.05 0.07 0.03 0.02 0.02 0.02 0.02 0.02 0.01 0.03 0.03 0.03 0.03 0.05 0.04 0.03
0.06 0.02 0.01 0.01 0.00 0.01 0.02 0.02 0.01 0.01 0.00 0.00 0.01 0.01 0.00 0.01 0.04 0.05 0.06 0.10 0.01 0.00 0.02 0.01 0.03 0.02 0.00 0.00 0.00 0.00 0.00 0.00 0.01 0.00 0.01 0.03 0.02 0.01 0.06 0.08 0.05 0.05 0.08 0.05 0.02 0.02 0.05 0.05 0.05 0.02 0.01 0.03 0.02 0.02
0.03 0.02 0.01 0.01 0.02 0.03 0.03 0.02 0.01 0.00 0.00 0.01 0.01 0.00 0.01 0.05 0.08 0.04 0.03 0.00 0.00 0.01 0.02 0.01 0.01 0.07 0.01 0.01 0.02 0.01 0.01 0.00 0.00 0.00 0.01 0.02 0.02 0.03 0.12 0.11 0.07 0.07 0.09 0.06 0.02 0.01 0.01 0.00 0.00 0.01 0.00 0.00 0.00 0.00
0.04 0.02 0.01 0.01 0.02 0.05 0.05 0.02 0.00 0.00 0.01 0.02 0.02 0.04 0.09 0.17 0.08 0.02 0.01 0.00 0.01 0.05 0.04 0.01 0.01 0.27 0.05 0.04 0.05 0.03 0.01 0.01 0.02 0.01 0.01 0.02 0.05 0.04 0.13 0.11 0.09 0.07 0.07 0.04 0.01 0.00 0.00 0.00 0.00 0.00 0.00 0.00 0.00 0.00
0.04 0.03 0.01 0.01 0.02 0.06 0.04 0.01 0.00 0.02 0.03 0.05 0.09 0.10 0.14 0.07 0.04 0.02 0.04 0.02 0.02 0.02 0.02 0.01 0.01 0.08 0.11 0.05 0.06 0.07 0.04 0.01 0.02 0.01 0.02 0.02 0.02 0.03 0.10 0.07 0.05 0.01 0.00 0.00 0.00 0.00 0.00 0.00 0.00 0.00 0.00 0.00 0.00 0.00
0.04 0.02 0.02 0.02 0.03 0.06 0.04 0.00 0.02 0.05 0.06 0.07 0.09 0.18 0.15 0.18 0.18 0.05 0.02 0.02 0.01 0.01 0.01 0.00 0.00 0.02 0.07 0.07 0.09 0.07 0.04 0.05 0.02 0.09 0.04 0.09 0.02 0.01 0.05 0.05 0.01 0.01 0.00 0.00 0.00 0.00 0.00 0.00 0.00 0.00 0.00 0.00 0.00 0.00
0.01 0.01 0.02 0.02 0.04 0.06 0.03 0.01 0.02 0.03 0.03 0.03 0.09 0.17 0.23 0.20 0.17 0.04 0.02 0.01 0.01 0.01 0.02 0.01 0.00 0.01 0.08 0.05 0.07 0.03 0.01 0.02 0.06 0.11 0.06 0.06 0.02 0.00 0.01 0.01 0.02 0.00 0.00 0.00 0.00 0.00 0.00 0.00 0.00 0.00 0.00 0.00 0.00 0.00
0.02 0.02 0.04 0.05 0.05 0.05 0.02 0.01 0.02 0.05 0.12 0.20 0.26 0.16 0.18 0.13 0.08 0.02 0.01 0.00 0.00 0.01 0.02 0.00 0.01 0.01 0.01 0.01 0.01 0.02 0.01 0.05 0.06 0.04 0.05 0.03 0.00 0.03 0.03 0.01 0.01 0.00 0.00 0.00 0.00 0.00 0.00 0.00 0.00 0.00 0.00 0.00 0.00 0.00
0.02 0.05 0.06 0.05 0.06 0.07 0.03 0.02 0.02 0.09 0.35 0.31 0.25 0.10 0.08 0.07 0.01 0.02 0.02 0.02 0.02 0.02 0.00 0.01 0.00 0.03 0.03 0.01 0.01 0.01 0.01 0.02 0.04 0.06 0.06 0.01 0.00 0.04 0.08 0.06 0.02 0.00 0.00 0.00 0.00 0.00 0.00 0.00 0.00 0.00 0.00 0.00 0.00 0.00
0.03 0.07 0.10 0.10 0.10 0.06 0.04 0.01 0.03 0.14 0.32 0.30 0.27 0.07 0.02 0.04 0.03 0.02 0.02 0.01 0.00 0.01 0.00 0.01 0.03 0.05 0.02 0.03 0.02 0.03 0.03 0.02 0.01 0.04 0.02 0.00 0.00 0.01 0.03 0.05 0.04 0.01 0.00 0.00 0.00 0.00 0.00 0.00 0.00 0.00 0.00 0.00 0.00 0.00
0.06 0.12 0.10 0.10 0.10 0.04 0.02 0.03 0.11 0.19 0.26 0.19 0.23 0.12 0.05 0.04 0.05 0.03 0.02 0.01 0.01 0.01 0.01 0.03 0.02 0.03 0.02 0.07 0.11 0.02 0.02 0.04 0.04 0.01 0.01 0.00 0.00 0.03 0.03 0.03 0.04 0.03 0.00 0.00 0.00 0.00 0.00 0.00 0.00 0.00 0.00 0.00 0.00 0.00
0.04 0.05 0.08 0.12 0.10 0.05 0.04 0.09 0.16 0.21 0.16 0.14 0.13 0.06 0.05 0.04 0.05 0.02 0.01 0.01 0.01 0.02 0.01 0.05 0.02 0.03 0.08 0.02 0.02 0.01 0.02 0.03 0.00 0.01 0.01 0.00 0.00 0.01 0.04 0.04 0.03 0.03 0.02 0.01 0.00 0.00 0.00 0.00 0.00 0.00 0.00 0.00 0.00 0.00
0.02 0.06 0.09 0.11 0.06 0.08 0.12 0.14 0.19 0.18 0.10 0.07 0.06 0.05 0.02 0.02 0.02 0.01 0.01 0.00 0.01 0.01 0.01 0.04 0.05 0.04 0.07 0.22 0.14 0.01 0.00 0.02 0.01 0.01 0.01 0.01 0.00 0.00 0.00 0.02 0.04 0.03 0.02 0.02 0.00 0.00 0.00 0.00 0.00 0.00 0.00 0.00 0.00 0.00
0.03 0.06 0.07 0.04 0.02 0.06 0.11 0.09 0.16 0.16 0.04 0.02 0.02 0.01 0.01 0.01 0.00 0.00 0.00 0.00 0.00 0.00 0.01 0.01 0.00 0.02 0.04 0.04 0.02 0.00 0.00 0.01 0.02 0.02 0.01 0.00 0.00 0.00 0.00 0.00 0.01 0.02 0.01 0.00 0.00 0.00 0.00 0.00 0.00 0.00 0.00 0.00 0.00 0.00
0.15 0.13 0.10 0.03 0.03 0.06 0.09 0.07 0.02 0.05 0.01 0.01 0.01 0.00 0.01 0.01 0.00 0.01 0.00 0.00 0.00 0.00 0.00 0.00 0.00 0.01 0.00 0.00 0.00 0.00 0.00 0.00 0.00 0.01 0.03 0.02 0.00 0.00 0.00 0.00 0.00 0.00 0.00 0.00 0.00 0.00 0.00 0.00 0.00 0.00 0.00 0.00 0.00 0.00
0.36 0.44 0.36 0.13 0.11 0.14 0.13 0.05 0.01 0.01 0.01 0.01 0.00 0.00 0.00 0.00 0.01 0.01 0.00 0.00 0.00 0.01 0.01 0.00 0.00 0.00 0.00 0.00 0.00 0.00 0.00 0.00 0.00 0.00 0.00 0.01 0.01 0.00 0.00 0.00 0.00 0.00 0.00 0.00 0.00 0.00 0.00 0.00 0.00 0.00 0.00 0.00 0.01 0.01
0.45 0.45 0.49 0.21 0.11 0.11 0.08 0.04 0.04 0.00 0.01 0.01 0.01 0.00 0.01 0.01 0.01 0.00 0.00 0.01 0.01 0.00 0.00 0.00 0.00 0.00 0.00 0.00 0.00 0.00 0.00 0.00 0.00 0.00 0.00 0.00 0.01 0.01 0.01 0.00 0.00 0.00 0.00 0.00 0.00 0.00 0.00 0.00 0.00 0.00 0.00 0.01 0.00 0.00
0.24 0.21 0.23 0.13 0.11 0.11 0.06 0.07 0.05 0.00 0.00 0.03 0.02 0.01 0.00 0.01 0.00 0.00 0.00 0.00 0.00 0.00 0.00 0.00 0.00 0.00 0.00 0.00 0.00 0.00 0.00 0.00 0.00 0.00 0.00 0.00 0.00 0.00 0.00 0.00 0.00 0.01 0.01 0.00 0.00 0.00 0.00 0.00 0.00 0.00 0.00 0.00 0.00 0.00
0.22 0.27 0.33 0.14 0.05 0.06 0.05 0.11 0.07 0.04 0.01 0.01 0.01 0.01 0.01 0.01 0.01 0.00 0.00 0.00 0.00 0.00 0.00 0.00 0.00 0.00 0.00 0.00 0.00 0.00 0.00 0.00 0.00 0.00 0.00 0.00 0.01 0.01 0.00 0.00 0.00 0.00 0.00 0.00 0.00 0.00 0.00 0.00 0.00 0.00 0.00 0.01 0.01 0.01
0.32 0.22 0.21 0.15 0.02 0.01 0.02 0.06 0.07 0.03 0.01 0.01 0.01 0.00 0.01 0.00 0.01 0.01 0.00 0.00 0.00 0.00 0.00 0.00 0.00 0.00 0.00 0.00 0.00 0.00 0.00 0.00 0.00 0.01 0.01 0.00 0.00 0.01 0.02 0.01 0.00 0.00 0.00 0.00 0.00 0.01 0.00 0.01 0.01 0.02 0.02 0.02 0.01 0.01
0.31 0.15 0.06 0.04 0.01 0.00 0.00 0.01 0.01 0.01 0.01 0.01 0.01 0.01 0.01 0.01 0.01 0.00 0.01 0.03 0.01 0.01 0.01 0.00 0.00 0.00 0.00 0.00 0.00 0.00 0.00 0.00 0.00 0.00 0.01 0.00 0.00 0.00 0.01 0.01 0.01 0.01 0.00 0.00 0.00 0.01 0.01 0.02 0.02 0.03 0.03 0.01 0.00 0.00
0.13 0.13 0.03 0.02 0.01 0.01 0.00 0.01 0.01 0.01 0.01 0.01 0.02 0.01 0.01 0.01 0.00 0.01 0.01 0.03 0.04 0.01 0.00 0.01 0.01 0.00 0.00 0.00 0.00 0.01 0.00 0.00 0.00 0.00 0.01 0.00 0.00 0.00 0.00 0.00 0.00 0.00 0.00 0.00 0.00 0.00 0.01 0.02 0.02 0.02 0.01 0.01 0.00 0.00
0.02 0.02 0.02 0.04 0.07 0.05 0.03 0.01 0.00 0.00 0.01 0.00 0.01 0.01 0.01 0.00 0.02 0.02 0.01 0.02 0.08 0.03 0.04 0.05 0.06 0.01 0.00 0.00 0.01 0.02 0.04 0.03 0.01 0.00 0.01 0.01 0.02 0.01 0.01 0.00 0.00 0.00 0.01 0.01 0.01 0.02 0.02 0.02 0.01 0.01 0.00 0.00 0.01 0.00
0.01 0.01 0.01 0.03 0.05 0.07 0.05 0.02 0.02 0.01 0.00 0.01 0.03 0.02 0.01 0.01 0.02 0.02 0.01 0.05 0.08 0.03 0.05 0.07 0.12 0.03 0.02 0.04 0.05 0.06 0.04 0.02 0.01 0.02 0.02 0.02 0.03 0.05 0.03 0.01 0.01 0.01 0.02 0.02 0.03 0.02 0.01 0.01 0.00 0.00 0.00 0.00 0.00 0.00
0.00 0.02 0.03 0.03 0.04 0.02 0.02 0.02 0.03 0.01 0.01 0.01 0.01 0.01 0.00 0.01 0.01 0.02 0.03 0.04 0.06 0.04 0.04 0.02 0.04 0.03 0.04 0.04 0.08 0.11 0.10 0.06 0.02 0.01 0.01 0.01 0.01 0.02 0.03 0.02 0.02 0.02 0.02 0.01 0.01 0.02 0.01 0.00 0.00 0.00 0.00 0.00 0.00 0.00
0.02 0.04 0.04 0.04 0.03 0.03 0.03 0.03 0.02 0.02 0.02 0.03 0.04 0.02 0.01 0.01 0.01 0.02 0.04 0.06 0.11 0.04 0.04 0.06 0.08 0.07 0.05 0.04 0.02 0.02 0.06 0.07 0.04 0.02 0.01 0.01 0.02 0.03 0.03 0.02 0.01 0.01 0.00 0.00 0.00 0.00 0.00 0.00 0.00 0.00 0.00 0.00 0.00 0.00
0.09 0.09 0.05 0.04 0.04 0.07 0.07 0.08 0.06 0.04 0.02 0.02 0.02 0.01 0.02 0.02 0.02 0.02 0.02 0.06 0.10 0.06 0.06 0.05 0.06 0.10 0.08 0.09 0.07 0.05 0.03 0.03 0.02 0.01 0.01 0.01 0.03 0.03 0.02 0.01 0.00 0.00 0.00 0.00 0.00 0.00 0.00 0.00 0.00 0.00 0.00 0.00 0.00 0.00
0.08 0.06 0.06 0.07 0.06 0.05 0.05 0.09 0.08 0.04 0.03 0.03 0.02 0.02 0.04 0.03 0.02 0.03 0.03 0.06 0.13 0.10 0.09 0.09 0.07 0.09 0.10 0.10 0.08 0.07 0.07 0.07 0.06 0.03 0.03 0.03 0.02 0.01 0.00 0.00 0.00 0.00 0.00 0.00 0.00 0.00 0.00 0.00 0.00 0.00 0.00 0.00 0.00 0.00

GFSWCAN_prec_precacc24_120.txt.gz
Total_Precipitation_Accumulation
0.72 0.87 0.87 0.76 0.56 0.39 0.35 0.42 0.38 0.36 0.33 0.31 0.30 0.20 0.16 0.13 0.12 0.17 0.10 0.06 0.08 0.06 0.02 0.01 0.01 0.00 0.00 0.00 0.00 0.01 0.00 0.00 0.00 0.01 0.04 0.05 0.17 0.34 0.26 0.07 0.07 0.16 0.29 0.21 0.09 0.09 0.07 0.01 0.01 0.07 0.12 0.08 0.04 0.03
0.68 0.70 0.68 0.54 0.40 0.37 0.35 0.41 0.37 0.39 0.30 0.26 0.21 0.17 0.13 0.12 0.13 0.17 0.15 0.05 0.05 0.06 0.04 0.01 0.01 0.00 0.00 0.00 0.00 0.00 0.02 0.01 0.00 0.02 0.05 0.08 0.12 0.08 0.18 0.06 0.01 0.11 0.16 0.16 0.10 0.09 0.09 0.05 0.07 0.09 0.03 0.03 0.04 0.02
0.53 0.55 0.48 0.39 0.38 0.33 0.35 0.36 0.33 0.30 0.20 0.19 0.17 0.16 0.11 0.12 0.13 0.14 0.13 0.05 0.04 0.08 0.09 0.05 0.01 0.00 0.00 0.00 0.00 0.00 0.00 0.00 0.00 0.01 0.05 0.03 0.14 0.03 0.04 0.04 0.01 0.04 0.07 0.05 0.06 0.08 0.06 0.06 0.04 0.03 0.03 0.04 0.04 0.03
0.44 0.46 0.41 0.37 0.33 0.30 0.27 0.25 0.23 0.17 0.15 0.16 0.15 0.14 0.11 0.11 0.09 0.06 0.08 0.03 0.02 0.05 0.08 0.05 0.00 0.00 0.00 0.00 0.00 0.00 0.00 0.00 0.00 0.00 0.01 0.01 0.05 0.02 0.03 0.03 0.01 0.01 0.02 0.04 0.07 0.08 0.05 0.05 0.05 0.05 0.05 0.03 0.03 0.03
0.33 0.30 0.25 0.22 0.20 0.18 0.19 0.20 0.18 0.13 0.14 0.14 0.11 0.10 0.09 0.08 0.05 0.04 0.04 0.02 0.01 0.02 0.02 0.01 0.00 0.00 0.00 0.00 0.00 0.00 0.00 0.00 0.00 0.01 0.00 0.01 0.01 0.01 0.02 0.03 0.01 0.01 0.01 0.03 0.04 0.02 0.02 0.05 0.06 0.03 0.03 0.04 0.03 0.03
0.18 0.13 0.12 0.13 0.12 0.13 0.16 0.15 0.12 0.10 0.12 0.09 0.07 0.06 0.05 0.04 0.03 0.05 0.04 0.01 0.00 0.00 0.00 0.00 0.00 0.00 0.00 0.00 0.00 0.00 0.00 0.00 0.00 0.02 0.01 0.01 0.01 0.00 0.01 0.03 0.02 0.01 0.01 0.00 0.01 0.01 0.00 0.02 0.03 0.02 0.03 0.04 0.03 0.02
0.07 0.04 0.03 0.04 0.04 0.06 0.08 0.08 0.06 0.06 0.06 0.06 0.05 0.04 0.02 0.01 0.02 0.03 0.04 0.06 0.01 0.00 0.01 0.01 0.00 0.01 0.00 0.00 0.00 0.00 0.00 0.00 0.00 0.00 0.01 0.01 0.00 0.00 0.01 0.03 0.03 0.04 0.04 0.02 0.01 0.00 0.04 0.04 0.04 0.02 0.01 0.02 0.01 0.01
0.02 0.02 0.01 0.01 0.01 0.02 0.03 0.02 0.01 0.01 0.01 0.01 0.01 0.00 0.00 0.01 0.00 0.01 0.01 0.00 0.00 0.00 0.01 0.00 0.01 0.03 0.00 0.00 0.00 0.00 0.00 0.00 0.00 0.00 0.01 0.01 0.01 0.00 0.04 0.06 0.03 0.03 0.03 0.03 0.02 0.01 0.00 0.00 0.00 0.01 0.00 0.00 0.00 0.00
0.03 0.02 0.01 0.01 0.01 0.04 0.03 0.01 0.00 0.00 0.00 0.01 0.01 0.02 0.01 0.01 0.00 0.00 0.00 0.00 0.00 0.02 0.01 0.01 0.01 0.16 0.04 0.02 0.02 0.01 0.00 0.00 0.01 0.00 0.01 0.01 0.03 0.02 0.07 0.06 0.05 0.04 0.04 0.02 0.01 0.00 0.00 0.00 0.00 0.00 0.00 0.00 0.00 0.00
0.04 0.02 0.01 0.01 0.02 0.04 0.03 0.00 0.00 0.02 0.02 0.03 0.05 0.02 0.01 0.00 0.02 0.00 0.02 0.01 0.01 0.01 0.01 0.01 0.00 0.02 0.06 0.02 0.03 0.04 0.01 0.01 0.01 0.01 0.01 0.01 0.01 0.02 0.09 0.06 0.03 0.01 0.00 0.00 0.00 0.00 0.00 0.00 0.00 0.00 0.00 0.00 0.00 0.00
0.04 0.02 0.02 0.02 0.02 0.04 0.03 0.00 0.02 0.03 0.03 0.03 0.02 0.05 0.08 0.09 0.11 0.03 0.01 0.01 0.00 0.00 0.00 0.00 0.00 0.01 0.02 0.04 0.04 0.05 0.02 0.02 0.01 0.07 0.03 0.06 0.02 0.01 0.05 0.05 0.01 0.01 0.00 0.00 0.00 0.00 0.00 0.00 0.00 0.00 0.00 0.00 0.00 0.00
0.01 0.01 0.01 0.01 0.03 0.05 0.03 0.01 0.01 0.01 0.01 0.01 0.04 0.10 0.12 0.10 0.09 0.02 0.00 0.00 0.01 0.01 0.01 0.01 0.00 0.01 0.03 0.05 0.03 0.02 0.01 0.01 0.05 0.11 0.06 0.05 0.03 0.00 0.01 0.01 0.02 0.00 0.00 0.00 0.00 0.00 0.00 0.00 0.00 0.00 0.00 0.00 0.00 0.00
0.02 0.01 0.02 0.03 0.04 0.05 0.02 0.01 0.01 0.03 0.04 0.10 0.14 0.09 0.07 0.05 0.05 0.01 0.01 0.00 0.01 0.01 0.01 0.01 0.01 0.01 0.01 0.01 0.01 0.01 0.01 0.02 0.04 0.03 0.03 0.03 0.01 0.03 0.03 0.01 0.01 0.00 0.00 0.00 0.00 0.00 0.00 0.00 0.00 0.00 0.00 0.00 0.00 0.00
0.02 0.02 0.03 0.03 0.05 0.07 0.03 0.02 0.02 0.03 0.12 0.16 0.16 0.06 0.05 0.04 0.01 0.02 0.02 0.01 0.01 0.02 0.01 0.01 0.01 0.01 0.02 0.01 0.01 0.01 0.01 0.01 0.02 0.03 0.06 0.02 0.00 0.04 0.08 0.06 0.02 0.00 0.00 0.00 0.00 0.00 0.00 0.00 0.00 0.00 0.00 0.00 0.00 0.00
0.02 0.04 0.06 0.08 0.09 0.06 0.04 0.01 0.01 0.02 0.08 0.18 0.16 0.04 0.03 0.04 0.03 0.02 0.02 0.01 0.02 0.02 0.01 0.01 0.01 0.02 0.01 0.00 0.00 0.01 0.02 0.02 0.01 0.05 0.03 0.00 0.00 0.02 0.03 0.06 0.04 0.01 0.00 0.00 0.00 0.00 0.00 0.00 0.00 0.00 0.00 0.00 0.00 0.00
0.05 0.08 0.08 0.09 0.10 0.04 0.02 0.01 0.02 0.06 0.06 0.13 0.17 0.14 0.06 0.05 0.07 0.04 0.02 0.02 0.02 0.02 0.01 0.01 0.01 0.02 0.01 0.04 0.08 0.01 0.02 0.04 0.05 0.01 0.01 0.00 0.00 0.03 0.03 0.03 0.04 0.03 0.00 0.00 0.00 0.00 0.00 0.00 0.00 0.00 0.00 0.00 0.00 0.00
0.02 0.04 0.08 0.11 0.09 0.03 0.01 0.00 0.04 0.07 0.04 0.11 0.14 0.09 0.06 0.05 0.06 0.03 0.02 0.02 0.02 0.02 0.01 0.01 0.01 0.01 0.05 0.01 0.02 0.01 0.03 0.03 0.00 0.01 0.01 0.00 0.00 0.01 0.04 0.05 0.04 0.03 0.02 0.01 0.00 0.00 0.00 0.00 0.00 0.00 0.00 0.00 0.00 0.00
0.01 0.05 0.08 0.10 0.04 0.01 0.00 0.00 0.07 0.10 0.03 0.07 0.10 0.08 0.02 0.02 0.02 0.01 0.02 0.01 0.01 0.00 0.00 0.01 0.03 0.02 0.05 0.17 0.13 0.02 0.00 0.01 0.01 0.00 0.01 0.01 0.00 0.00 0.01 0.03 0.05 0.04 0.03 0.03 0.01 0.00 0.00 0.00 0.00 0.00 0.00 0.00 0.00 0.00
0.02 0.04 0.06 0.02 0.00 0.00 0.00 0.00 0.06 0.12 0.05 0.04 0.05 0.03 0.02 0.02 0.01 0.00 0.00 0.00 0.00 0.00 0.00 0.01 0.01 0.01 0.02 0.05 0.02 0.00 0.00 0.00 0.01 0.01 0.01 0.00 0.00 0.00 0.01 0.01 0.03 0.05 0.04 0.03 0.01 0.00 0.00 0.00 0.00 0.00 0.00 0.00 0.00 0.00
0.11 0.07 0.03 0.01 0.02 0.01 0.03 0.04 0.01 0.05 0.02 0.02 0.02 0.01 0.01 0.01 0.00 0.01 0.00 0.00 0.00 0.00 0.00 0.00 0.01 0.01 0.01 0.00 0.00 0.00 0.00 0.00 0.00 0.01 0.02 0.02 0.00 0.00 0.00 0.00 0.01 0.02 0.02 0.02 0.01 0.00 0.00 0.00 0.00 0.00 0.00 0.00 0.00 0.00
0.19 0.18 0.13 0.05 0.03 0.04 0.10 0.05 0.01 0.01 0.01 0.01 0.00 0.00 0.00 0.00 0.01 0.01 0.00 0.00 0.00 0.00 0.00 0.00 0.00 0.00 0.00 0.00 0.00 0.00 0.00 0.00 0.00 0.00 0.00 0.01 0.01 0.00 0.00 0.00 0.00 0.00 0.00 0.00 0.00 0.00 0.00 0.00 0.00 0.00 0.00 0.00 0.00 0.01
0.25 0.19 0.20 0.07 0.01 0.03 0.08 0.05 0.04 0.01 0.01 0.01 0.01 0.00 0.01 0.01 0.01 0.01 0.00 0.00 0.00 0.00 0.00 0.00 0.00 0.00 0.00 0.00 0.00 0.00 0.00 0.00 0.00 0.00 0.00 0.00 0.01 0.01 0.01 0.00 0.00 0.00 0.00 0.00 0.00 0.00 0.00 0.00 0.00 0.00 0.00 0.01 0.01 0.00
0.15 0.12 0.14 0.03 0.03 0.05 0.04 0.07 0.05 0.00 0.01 0.02 0.01 0.01 0.01 0.01 0.01 0.00 0.00 0.00 0.00 0.00 0.00 0.00 0.00 0.00 0.00 0.00 0.00 0.00 0.00 0.00 0.00 0.00 0.00 0.00 0.00 0.00 0.00 0.00 0.00 0.00 0.01 0.00 0.00 0.00 0.00 0.00 0.00 0.00 0.01 0.01 0.01 0.00
0.14 0.16 0.21 0.07 0.02 0.04 0.04 0.11 0.07 0.04 0.01 0.01 0.01 0.01 0.00 0.01 0.01 0.00 0.00 0.00 0.00 0.00 0.00 0.00 0.00 0.00 0.00 0.00 0.00 0.00 0.00 0.00 0.00 0.00 0.00 0.00 0.01 0.01 0.00 0.00 0.00 0.00 0.00 0.00 0.00 0.00 0.00 0.00 0.00 0.01 0.01 0.02 0.02 0.02
0.25 0.16 0.20 0.13 0.01 0.01 0.03 0.06 0.07 0.03 0.01 0.00 0.01 0.00 0.01 0.00 0.01 0.00 0.00 0.00 0.00 0.00 0.00 0.00 0.00 0.00 0.00 0.00 0.00 0.00 0.00 0.00 0.00 0.01 0.01 0.00 0.00 0.01 0.02 0.01 0.01 0.01 0.01 0.01 0.01 0.01 0.01 0.01 0.03 0.02 0.03 0.04 0.03 0.02
0.27 0.12 0.05 0.04 0.01 0.00 0.01 0.01 0.01 0.01 0.01 0.01 0.01 0.01 0.01 0.01 0.00 0.00 0.00 0.02 0.01 0.01 0.00 0.00 0.00 0.00 0.00 0.00 0.00 0.00 0.00 0.00 0.00 0.00 0.01 0.00 0.00 0.00 0.01 0.01 0.02 0.02 0.00 0.02 0.02 0.02 0.03 0.03 0.04 0.04 0.06 0.04 0.02 0.01
0.13 0.13 0.03 0.01 0.01 0.00 0.00 0.01 0.01 0.01 0.01 0.01 0.02 0.01 0.01 0.01 0.00 0.01 0.01 0.02 0.03 0.01 0.00 0.01 0.01 0.00 0.00 0.00 0.00 0.01 0.00 0.00 0.00 0.00 0.01 0.00 0.00 0.00 0.01 0.01 0.01 0.00 0.00 0.02 0.02 0.02 0.02 0.04 0.05 0.05 0.04 0.03 0.01 0.00
0.02 0.02 0.02 0.04 0.07 0.05 0.03 0.01 0.00 0.00 0.01 0.02 0.01 0.01 0.01 0.01 0.04 0.02 0.01 0.01 0.05 0.02 0.02 0.04 0.05 0.01 0.00 0.00 0.01 0.02 0.04 0.03 0.01 0.00 0.01 0.02 0.02 0.01 0.01 0.01 0.00 0.00 0.01 0.02 0.03 0.04 0.04 0.04 0.03 0.02 0.02 0.01 0.01 0.00
0.00 0.01 0.01 0.03 0.06 0.08 0.05 0.03 0.04 0.02 0.01 0.02 0.03 0.04 0.02 0.01 0.01 0.01 0.01 0.04 0.06 0.02 0.04 0.06 0.11 0.03 0.02 0.03 0.05 0.06 0.04 0.03 0.02 0.02 0.02 0.03 0.04 0.06 0.03 0.01 0.02 0.03 0.04 0.04 0.06 0.05 0.03 0.02 0.01 0.01 0.00 0.00 0.00 0.00
0.00 0.02 0.03 0.03 0.04 0.02 0.02 0.02 0.03 0.01 0.01 0.01 0.01 0.01 0.00 0.01 0.00 0.01 0.02 0.03 0.04 0.03 0.03 0.02 0.04 0.03 0.03 0.04 0.07 0.10 0.10 0.07 0.03 0.02 0.02 0.02 0.01 0.03 0.03 0.02 0.03 0.03 0.02 0.01 0.02 0.03 0.02 0.01 0.00 0.00 0.00 0.00 0.00 0.00
0.02 0.04 0.04 0.04 0.03 0.02 0.03 0.02 0.02 0.01 0.02 0.03 0.03 0.02 0.01 0.01 0.01 0.02 0.02 0.04 0.07 0.03 0.02 0.05 0.07 0.06 0.05 0.04 0.03 0.02 0.06 0.07 0.04 0.03 0.01 0.01 0.02 0.03 0.03 0.03 0.02 0.01 0.01 0.01 0.01 0.01 0.00 0.00 0.00 0.00 0.00 0.00 0.00 0.00
0.09 0.09 0.05 0.04 0.05 0.06 0.06 0.06 0.05 0.04 0.02 0.02 0.02 0.01 0.01 0.01 0.02 0.02 0.02 0.05 0.08 0.04 0.04 0.05 0.07 0.10 0.08 0.10 0.09 0.07 0.04 0.04 0.03 0.02 0.01 0.02 0.04 0.04 0.02 0.02 0.01 0.01 0.01 0.00 0.00 0.00 0.00 0.00 0.00 0.00 0.00 0.00 0.00 0.00
0.08 0.06 0.07 0.07 0.06 0.05 0.04 0.09 0.08 0.04 0.03 0.03 0.03 0.02 0.03 0.03 0.03 0.03 0.03 0.05 0.09 0.08 0.08 0.08 0.08 0.10 0.12 0.12 0.10 0.09 0.08 0.09 0.08 0.05 0.04 0.04 0.04 0.03 0.02 0.01 0.00 0.00 0.00 0.00 0.00 0.00 0.00 0.00 0.00 0.00 0.00 0.00 0.00 0.00

GFSWCAN_prec_precacc24_126.txt.gz
Total_Precipitation_Accumulation
0.77 0.92 0.86 0.78 0.62 0.46 0.50 0.59 0.47 0.46 0.40 0.33 0.31 0.21 0.17 0.15 0.14 0.22 0.18 0.18 0.20 0.19 0.11 0.12 0.06 0.01 0.01 0.00 0.00 0.01 0.00 0.00 0.00 0.01 0.04 0.05 0.09 0.12 0.13 0.13 0.07 0.17 0.29 0.22 0.10 0.12 0.07 0.01 0.01 0.03 0.03 0.02 0.01 0.01
0.74 0.72 0.65 0.54 0.43 0.42 0.49 0.66 0.55 0.49 0.41 0.32 0.23 0.18 0.14 0.14 0.15 0.24 0.26 0.27 0.22 0.33 0.10 0.08 0.16 0.02 0.01 0.00 0.00 0.00 0.00 0.00 0.00 0.01 0.05 0.08 0.05 0.04 0.04 0.12 0.07 0.11 0.14 0.17 0.11 0.07 0.03 0.03 0.04 0.04 0.00 0.01 0.02 0.01
0.59 0.68 0.56 0.43 0.44 0.40 0.49 0.63 0.52 0.42 0.31 0.27 0.20 0.17 0.13 0.14 0.16 0.23 0.28 0.26 0.32 0.42 0.28 0.09 0.20 0.08 0.01 0.01 0.00 0.00 0.00 0.00 0.00 0.01 0.05 0.07 0.04 0.02 0.03 0.06 0.04 0.05 0.06 0.04 0.03 0.05 0.04 0.03 0.02 0.01 0.01 0.01 0.01 0.01
0.47 0.48 0.43 0.40 0.42 0.45 0.40 0.48 0.39 0.25 0.26 0.25 0.19 0.16 0.14 0.15 0.17 0.19 0.25 0.23 0.22 0.27 0.35 0.14 0.03 0.08 0.02 0.01 0.00 0.00 0.00 0.00 0.00 0.01 0.02 0.02 0.02 0.01 0.02 0.04 0.04 0.01 0.01 0.02 0.04 0.04 0.03 0.04 0.03 0.02 0.02 0.01 0.01 0.01
0.38 0.35 0.29 0.25 0.25 0.24 0.27 0.33 0.26 0.19 0.23 0.22 0.16 0.15 0.16 0.16 0.20 0.18 0.16 0.32 0.15 0.11 0.12 0.06 0.01 0.01 0.02 0.00 0.00 0.00 0.00 0.00 0.00 0.02 0.00 0.00 0.00 0.01 0.00 0.00 0.01 0.01 0.01 0.01 0.02 0.00 0.01 0.02 0.03 0.02 0.01 0.01 0.01 0.01
0.27 0.22 0.20 0.19 0.17 0.18 0.20 0.18 0.16 0.16 0.18 0.15 0.15 0.13 0.14 0.14 0.18 0.18 0.30 0.50 0.39 0.07 0.03 0.06 0.04 0.01 0.01 0.01 0.01 0.00 0.00 0.00 0.02 0.04 0.01 0.01 0.01 0.00 0.01 0.01 0.01 0.00 0.00 0.00 0.00 0.00 0.00 0.01 0.02 0.01 0.01 0.01 0.01 0.00
0.14 0.13 0.14 0.14 0.12 0.12 0.12 0.12 0.11 0.12 0.13 0.14 0.13 0.09 0.09 0.11 0.08 0.09 0.16 0.24 0.22 0.12 0.02 0.03 0.04 0.01 0.01 0.01 0.01 0.00 0.01 0.01 0.02 0.02 0.01 0.01 0.00 0.00 0.01 0.01 0.01 0.01 0.01 0.00 0.00 0.00 0.03 0.02 0.03 0.01 0.00 0.01 0.00 0.00
0.07 0.08 0.09 0.09 0.09 0.09 0.08 0.08 0.08 0.09 0.09 0.10 0.08 0.10 0.12 0.10 0.08 0.07 0.02 0.03 0.05 0.03 0.01 0.01 0.04 0.03 0.02 0.01 0.00 0.00 0.00 0.00 0.00 0.01 0.00 0.01 0.00 0.00 0.00 0.01 0.01 0.01 0.00 0.00 0.00 0.00 0.00 0.00 0.00 0.01 0.00 0.00 0.00 0.00
0.04 0.06 0.08 0.09 0.10 0.10 0.09 0.07 0.07 0.07 0.10 0.12 0.15 0.15 0.12 0.11 0.09 0.05 0.01 0.04 0.01 0.00 0.01 0.01 0.03 0.03 0.00 0.00 0.00 0.00 0.00 0.00 0.00 0.00 0.01 0.01 0.01 0.01 0.00 0.01 0.00 0.00 0.00 0.00 0.00 0.00 0.00 0.00 0.00 0.02 0.02 0.01 0.00 0.00
0.04 0.06 0.07 0.08 0.10 0.12 0.11 0.11 0.11 0.12 0.14 0.13 0.11 0.06 0.13 0.07 0.04 0.03 0.06 0.04 0.01 0.00 0.00 0.00 0.00 0.00 0.01 0.00 0.01 0.01 0.00 0.00 0.00 0.01 0.01 0.01 0.00 0.00 0.00 0.00 0.00 0.00 0.00 0.00 0.00 0.00 0.00 0.00 0.00 0.02 0.03 0.02 0.01 0.00
0.04 0.07 0.09 0.10 0.11 0.11 0.10 0.10 0.09 0.07 0.05 0.01 0.00 0.03 0.06 0.04 0.03 0.02 0.04 0.01 0.00 0.00 0.00 0.01 0.00 0.01 0.00 0.01 0.01 0.01 0.01 0.01 0.01 0.05 0.02 0.02 0.02 0.00 0.01 0.00 0.01 0.01 0.00 0.00 0.00 0.00 0.00 0.00 0.00 0.04 0.06 0.03 0.01 0.00
0.01 0.02 0.05 0.08 0.10 0.09 0.06 0.03 0.01 0.00 0.00 0.00 0.01 0.03 0.03 0.01 0.00 0.00 0.00 0.00 0.00 0.00 0.00 0.01 0.00 0.00 0.01 0.01 0.02 0.01 0.01 0.00 0.04 0.10 0.05 0.03 0.02 0.00 0.00 0.01 0.02 0.00 0.00 0.00 0.00 0.00 0.00 0.00 0.01 0.03 0.05 0.02 0.01 0.01
0.01 0.01 0.01 0.02 0.02 0.01 0.01 0.00 0.01 0.00 0.00 0.00 0.01 0.00 0.00 0.00 0.00 0.00 0.00 0.00 0.01 0.01 0.01 0.01 0.02 0.01 0.01 0.01 0.01 0.01 0.01 0.02 0.02 0.01 0.03 0.03 0.01 0.03 0.03 0.01 0.01 0.00 0.00 0.00 0.00 0.00 0.01 0.04 0.06 0.05 0.04 0.02 0.03 0.03
0.01 0.01 0.01 0.02 0.03 0.03 0.01 0.01 0.01 0.00 0.00 0.01 0.01 0.00 0.00 0.01 0.02 0.05 0.02 0.00 0.01 0.01 0.02 0.02 0.01 0.01 0.01 0.00 0.01 0.01 0.01 0.01 0.01 0.02 0.04 0.02 0.00 0.04 0.08 0.06 0.02 0.00 0.00 0.00 0.00 0.00 0.03 0.06 0.09 0.07 0.06 0.06 0.04 0.02
0.01 0.01 0.03 0.05 0.06 0.03 0.01 0.00 0.00 0.00 0.00 0.01 0.01 0.02 0.04 0.06 0.06 0.03 0.02 0.01 0.03 0.02 0.01 0.01 0.00 0.00 0.00 0.00 0.00 0.00 0.01 0.01 0.01 0.05 0.04 0.00 0.00 0.02 0.03 0.06 0.04 0.01 0.00 0.00 0.01 0.02 0.04 0.06 0.07 0.08 0.07 0.04 0.02 0.01
0.02 0.02 0.04 0.05 0.05 0.01 0.00 0.00 0.00 0.00 0.00 0.01 0.05 0.10 0.09 0.09 0.13 0.07 0.03 0.04 0.04 0.02 0.01 0.00 0.00 0.00 0.00 0.00 0.00 0.00 0.00 0.03 0.04 0.01 0.00 0.00 0.01 0.03 0.03 0.03 0.04 0.03 0.00 0.00 0.01 0.03 0.03 0.05 0.05 0.06 0.07 0.06 0.04 0.02
0.00 0.02 0.05 0.05 0.04 0.00 0.00 0.00 0.00 0.00 0.01 0.05 0.13 0.13 0.13 0.16 0.16 0.06 0.03 0.03 0.03 0.02 0.00 0.00 0.00 0.00 0.01 0.01 0.01 0.01 0.03 0.03 0.00 0.00 0.01 0.01 0.00 0.02 0.05 0.05 0.04 0.03 0.02 0.01 0.00 0.01 0.02 0.03 0.04 0.04 0.04 0.04 0.03 0.01
0.01 0.03 0.05 0.06 0.01 0.00 0.00 0.00 0.00 0.01 0.05 0.10 0.16 0.13 0.03 0.04 0.03 0.01 0.02 0.01 0.01 0.00 0.00 0.00 0.00 0.00 0.02 0.04 0.04 0.02 0.00 0.01 0.01 0.00 0.01 0.01 0.00 0.01 0.01 0.03 0.06 0.04 0.04 0.03 0.01 0.00 0.00 0.00 0.01 0.01 0.02 0.02 0.01 0.00
0.01 0.01 0.02 0.00 0.00 0.00 0.00 0.00 0.00 0.03 0.11 0.09 0.10 0.04 0.02 0.02 0.01 0.00 0.00 0.00 0.00 0.00 0.00 0.00 0.01 0.02 0.02 0.02 0.01 0.00 0.00 0.00 0.01 0.01 0.01 0.01 0.01 0.01 0.01 0.01 0.04 0.06 0.05 0.04 0.02 0.00 0.00 0.00 0.00 0.00 0.00 0.00 0.00 0.00
0.06 0.02 0.00 0.00 0.00 0.00 0.00 0.00 0.00 0.01 0.04 0.05 0.03 0.01 0.01 0.01 0.00 0.01 0.00 0.00 0.00 0.00 0.00 0.01 0.02 0.02 0.01 0.01 0.00 0.00 0.00 0.00 0.00 0.00 0.01 0.02 0.01 0.00 0.00 0.01 0.01 0.03 0.04 0.05 0.04 0.02 0.00 0.00 0.00 0.00 0.00 0.00 0.00 0.00
0.14 0.12 0.05 0.00 0.00 0.00 0.01 0.01 0.00 0.01 0.01 0.01 0.01 0.01 0.01 0.01 0.00 0.01 0.00 0.00 0.00 0.00 0.01 0.01 0.00 0.00 0.00 0.00 0.00 0.00 0.00 0.00 0.00 0.00 0.00 0.01 0.01 0.00 0.00 0.01 0.01 0.01 0.01 0.00 0.01 0.01 0.01 0.01 0.00 0.00 0.00 0.00 0.00 0.01
0.15 0.11 0.03 0.00 0.00 0.00 0.01 0.02 0.02 0.01 0.01 0.01 0.01 0.00 0.01 0.01 0.01 0.00 0.00 0.00 0.01 0.01 0.00 0.00 0.00 0.00 0.00 0.00 0.00 0.00 0.00 0.00 0.00 0.00 0.00 0.00 0.01 0.01 0.01 0.01 0.00 0.00 0.00 0.00 0.00 0.00 0.00 0.00 0.00 0.00 0.00 0.01 0.01 0.00
0.02 0.00 0.00 0.00 0.00 0.00 0.01 0.04 0.04 0.00 0.01 0.02 0.01 0.01 0.00 0.00 0.00 0.00 0.00 0.00 0.01 0.01 0.00 0.00 0.00 0.00 0.00 0.00 0.00 0.00 0.00 0.00 0.00 0.00 0.00 0.00 0.00 0.00 0.00 0.00 0.00 0.00 0.00 0.00 0.00 0.00 0.00 0.00 0.00 0.00 0.02 0.01 0.01 0.01
0.00 0.00 0.00 0.00 0.00 0.00 0.01 0.07 0.06 0.02 0.01 0.01 0.01 0.01 0.00 0.00 0.01 0.00 0.01 0.01 0.00 0.00 0.00 0.00 0.00 0.00 0.00 0.00 0.00 0.00 0.00 0.00 0.00 0.00 0.00 0.00 0.00 0.00 0.00 0.00 0.00 0.00 0.00 0.00 0.00 0.00 0.00 0.00 0.00 0.02 0.02 0.03 0.03 0.03
0.00 0.00 0.02 0.03 0.00 0.00 0.02 0.05 0.06 0.02 0.01 0.00 0.01 0.01 0.00 0.00 0.00 0.00 0.01 0.02 0.01 0.00 0.00 0.00 0.00 0.00 0.00 0.00 0.00 0.00 0.00 0.00 0.00 0.00 0.00 0.00 0.00 0.01 0.02 0.02 0.02 0.02 0.02 0.01 0.01 0.02 0.01 0.02 0.04 0.05 0.06 0.06 0.05 0.05
0.03 0.03 0.00 0.01 0.00 0.00 0.01 0.02 0.01 0.01 0.01 0.01 0.01 0.01 0.01 0.00 0.00 0.01 0.01 0.01 0.00 0.01 0.01 0.01 0.00 0.00 0.00 0.00 0.00 0.00 0.00 0.00 0.00 0.00 0.00 0.00 0.00 0.00 0.01 0.02 0.03 0.05 0.04 0.03 0.02 0.03 0.05 0.06 0.07 0.07 0.10 0.09 0.06 0.03
0.03 0.04 0.02 0.01 0.01 0.00 0.00 0.01 0.01 0.01 0.01 0.01 0.01 0.01 0.00 0.00 0.01 0.01 0.01 0.01 0.01 0.01 0.01 0.01 0.00 0.00 0.00 0.00 0.00 0.01 0.00 0.00 0.00 0.00 0.00 0.00 0.00 0.01 0.01 0.01 0.01 0.01 0.02 0.05 0.04 0.03 0.04 0.06 0.08 0.09 0.09 0.08 0.04 0.02
0.01 0.01 0.02 0.04 0.07 0.05 0.03 0.01 0.00 0.01 0.02 0.03 0.01 0.01 0.01 0.02 0.05 0.01 0.00 0.01 0.02 0.02 0.02 0.01 0.00 0.00 0.00 0.00 0.00 0.02 0.03 0.03 0.02 0.00 0.01 0.02 0.03 0.02 0.01 0.01 0.00 0.00 0.02 0.05 0.06 0.06 0.07 0.07 0.06 0.05 0.04 0.05 0.06 0.04
0.01 0.01 0.00 0.02 0.05 0.07 0.05 0.03 0.06 0.03 0.02 0.02 0.03 0.07 0.03 0.01 0.01 0.01 0.00 0.01 0.02 0.02 0.02 0.02 0.03 0.02 0.02 0.03 0.05 0.05 0.04 0.03 0.02 0.02 0.03 0.03 0.04 0.07 0.05 0.03 0.03 0.05 0.07 0.09 0.12 0.09 0.05 0.04 0.04 0.03 0.03 0.03 0.03 0.02
0.01 0.00 0.01 0.01 0.01 0.02 0.02 0.02 0.03 0.01 0.01 0.01 0.01 0.01 0.01 0.01 0.02 0.02 0.01 0.01 0.02 0.02 0.03 0.03 0.03 0.03 0.03 0.03 0.05 0.07 0.10 0.09 0.06 0.04 0.04 0.02 0.02 0.04 0.04 0.03 0.03 0.04 0.03 0.02 0.04 0.08 0.05 0.04 0.03 0.03 0.03 0.02 0.02 0.01
0.01 0.01 0.01 0.01 0.01 0.01 0.01 0.02 0.01 0.01 0.02 0.02 0.02 0.01 0.02 0.03 0.03 0.02 0.02 0.02 0.02 0.02 0.03 0.04 0.05 0.05 0.05 0.05 0.03 0.03 0.06 0.07 0.05 0.03 0.01 0.01 0.02 0.04 0.04 0.03 0.03 0.02 0.02 0.02 0.02 0.02 0.02 0.02 0.02 0.02 0.01 0.01 0.00 0.00
0.07 0.08 0.06 0.04 0.04 0.03 0.04 0.05 0.04 0.03 0.02 0.02 0.01 0.02 0.02 0.01 0.04 0.04 0.02 0.03 0.04 0.05 0.07 0.06 0.09 0.13 0.09 0.11 0.11 0.09 0.05 0.05 0.05 0.03 0.02 0.02 0.04 0.04 0.03 0.03 0.03 0.02 0.02 0.02 0.01 0.01 0.01 0.00 0.00 0.00 0.00 0.00 0.00 0.00
0.07 0.05 0.06 0.07 0.05 0.04 0.04 0.07 0.06 0.04 0.02 0.02 0.03 0.04 0.04 0.03 0.05 0.04 0.02 0.03 0.05 0.06 0.06 0.07 0.09 0.12 0.14 0.12 0.11 0.12 0.11 0.13 0.11 0.08 0.06 0.06 0.05 0.04 0.03 0.03 0.02 0.01 0.01 0.00 0.00 0.00 0.00 0.00 0.00 0.00 0.00 0.00 0.00 0.00